TimeCDT,TemperatureF,Dew PointF,Humidity,Sea Level PressureIn,VisibilityMPH,Wind Direction,Wind SpeedMPH,Gust SpeedMPH,PrecipitationIn,Events,Conditions,WindDirDegrees,DateUTC
12:02 AM,71.6,69.8,94,30.05,10.0,Calm,Calm,-,0.00,,Overcast,0,2013-08-18 05:02:00
12:53 AM,72.0,70.0,93,30.04,10.0,Calm,Calm,-,0.02,Rain,Light Rain,0,2013-08-18 05:53:00
1:53 AM,71.1,69.1,93,30.03,10.0,ENE,4.6,-,0.04,Rain,Light Rain,60,2013-08-18 06:53:00
2:01 AM,71.6,69.8,94,30.05,10.0,East,5.8,-,0.00,Rain,Light Rain,100,2013-08-18 07:01:00
2:53 AM,71.1,69.1,93,30.05,10.0,ENE,4.6,-,0.00,,Overcast,60,2013-08-18 07:53:00
3:53 AM,71.1,68.0,90,30.06,9.0,ESE,6.9,-,0.01,Rain,Light Rain,120,2013-08-18 08:53:00
4:53 AM,71.1,68.0,90,30.05,10.0,East,6.9,-,0.03,Rain,Light Rain,80,2013-08-18 09:53:00
5:53 AM,71.1,68.0,90,30.06,10.0,ENE,5.8,-,0.02,Rain,Light Rain,70,2013-08-18 10:53:00
6:32 AM,71.6,68.0,88,30.06,10.0,ENE,5.8,-,0.01,,Scattered Clouds,70,2013-08-18 11:32:00
6:44 AM,71.6,69.8,94,30.07,10.0,ENE,6.9,-,0.01,Rain,Light Rain,70,2013-08-18 11:44:00
6:53 AM,72.0,69.1,91,30.06,10.0,East,5.8,-,0.01,Rain,Light Rain,80,2013-08-18 11:53:00
7:02 AM,71.6,69.8,94,30.06,10.0,East,5.8,-,N/A,,Overcast,80,2013-08-18 12:02:00
7:18 AM,71.6,69.8,94,30.06,10.0,ENE,4.6,-,N/A,,Overcast,70,2013-08-18 12:18:00
7:35 AM,71.6,69.8,94,30.07,10.0,East,5.8,-,0.00,Rain,Light Rain,90,2013-08-18 12:35:00
7:53 AM,72.0,69.1,91,30.06,10.0,East,5.8,-,0.00,Rain,Light Rain,90,2013-08-18 12:53:00
8:02 AM,71.6,69.8,94,30.07,10.0,East,6.9,-,0.00,,Overcast,90,2013-08-18 13:02:00
8:53 AM,73.0,70.0,90,30.07,10.0,East,5.8,-,0.00,Rain,Light Rain,80,2013-08-18 13:53:00
9:53 AM,73.0,70.0,90,30.07,10.0,East,6.9,-,0.02,Rain,Light Rain,80,2013-08-18 14:53:00
10:32 AM,73.4,71.6,94,30.10,6.0,East,3.5,-,0.06,Rain,Rain,100,2013-08-18 15:32:00
10:53 AM,73.0,71.1,93,30.10,6.0,ESE,5.8,-,0.10,Rain,Rain,120,2013-08-18 15:53:00
11:05 AM,73.4,71.6,94,30.11,6.0,SE,6.9,-,0.02,Rain,Rain,140,2013-08-18 16:05:00
11:53 AM,73.9,72.0,93,30.10,8.0,SE,4.6,-,0.11,Rain,Light Rain,140,2013-08-18 16:53:00
12:40 PM,73.4,71.6,94,30.09,10.0,SE,5.8,-,0.03,Rain,Light Rain,130,2013-08-18 17:40:00
12:53 PM,75.0,73.0,94,30.08,10.0,SSE,5.8,-,0.03,,Mostly Cloudy,150,2013-08-18 17:53:00
1:53 PM,75.9,73.9,94,30.07,10.0,SSE,8.1,-,0.00,Rain,Light Rain,160,2013-08-18 18:53:00
2:29 PM,77.0,73.4,89,30.08,7.0,SSE,10.4,-,0.03,Rain,Light Rain,150,2013-08-18 19:29:00
2:53 PM,75.0,72.0,90,30.04,10.0,ESE,8.1,-,0.04,Rain,Light Rain,110,2013-08-18 19:53:00
3:53 PM,75.0,71.1,87,30.05,10.0,Calm,Calm,-,0.01,Rain,Light Rain,0,2013-08-18 20:53:00
4:53 PM,75.0,71.1,87,30.06,4.0,Calm,Calm,-,0.04,Rain,Rain,0,2013-08-18 21:53:00
5:22 PM,75.2,71.6,89,30.06,5.0,SE,5.8,-,0.02,Rain,Heavy Rain,130,2013-08-18 22:22:00
5:39 PM,75.2,71.6,89,30.04,10.0,SE,8.1,-,0.02,Rain,Light Rain,130,2013-08-18 22:39:00
5:53 PM,75.9,72.0,87,30.04,10.0,SSE,4.6,-,0.02,,Mostly Cloudy,150,2013-08-18 22:53:00
6:53 PM,75.9,73.0,91,30.04,10.0,East,4.6,-,N/A,,Mostly Cloudy,90,2013-08-18 23:53:00
7:39 PM,75.2,71.6,89,30.06,10.0,East,3.5,-,N/A,,Mostly Cloudy,100,2013-08-19 00:39:00
7:48 PM,75.2,71.6,89,30.06,10.0,ESE,3.5,-,N/A,,Overcast,120,2013-08-19 00:48:00
7:53 PM,75.0,73.0,94,30.06,10.0,SE,4.6,-,N/A,,Overcast,130,2013-08-19 00:53:00
8:45 PM,75.2,71.6,89,30.07,10.0,ESE,6.9,-,N/A,,Scattered Clouds,120,2013-08-19 01:45:00
8:53 PM,73.9,71.1,91,30.06,10.0,ESE,8.1,-,N/A,,Scattered Clouds,120,2013-08-19 01:53:00
9:35 PM,73.4,71.6,94,30.07,10.0,ESE,5.8,-,N/A,,Mostly Cloudy,120,2013-08-19 02:35:00
9:53 PM,73.0,71.1,93,30.06,10.0,SE,3.5,-,N/A,,Overcast,130,2013-08-19 02:53:00
10:29 PM,73.4,71.6,94,30.07,10.0,SE,4.6,-,N/A,,Mostly Cloudy,140,2013-08-19 03:29:00
10:40 PM,73.4,71.6,94,30.07,10.0,Calm,Calm,-,N/A,,Scattered Clouds,0,2013-08-19 03:40:00
10:53 PM,73.0,70.0,90,30.06,10.0,SE,3.5,-,N/A,,Clear,130,2013-08-19 03:53:00
11:53 PM,72.0,70.0,93,30.06,10.0,Calm,Calm,-,N/A,,Partly Cloudy,0,2013-08-19 04:53:00